Location: Seven Kings
(51.5667°N, 0.1000°E)
Time: 04:33:40
(UTC+00:00)

SJ 16-02 - Pass Details

Date: 29 October 2020
Orbit: 605 x 617 km, 75.0° (Epoch: 25 November)

Event Time Altitude Azimuth Distance (km) Brightness Sun altitude
Rises 20:07:26 0° 336° (NNW) 2,898 5.4 -32.8°
Reaches altitude 10° 20:09:41 10° 336° (NNW) 1,990 4.4 -33.2°
Enters shadow 20:10:43 17° 336° (NNW) 1,581 3.8 -33.3°
